Other Public Products
Issued by NWS Charleston, SC

Current Version | Previous Version | Graphics & Text | Print | Product List | Glossary On
Versions: 1 2 3 4 5 6 7 8 9 10 11 12 13 14 15 16 17 18 19 20 21 22 23 24 25 26 27 28 29 30 31 32 33 34 35 36 37 38 39 40 41 42 43 44 45 46 47 48 49 50
388 FPUS82 KCHS 230112 OPUCHS TEST...KCHS/KSAV Gateway Observations...TEST National Weather Service Charleston SC 800 PM EST THU FEB 22 2018 NOTE: "fair" indicates few or no clouds below 12,000 feet with no significant weather and/or obstructions to visibility. SCZ050-WAZ558-NCZ071-TXZ119-213-PAZ071-DCZ001-FLZ074-172-MI076- NYZ176-178-MAZ016-IL014-TNZ027-NJZ106-GAZ044-MD014-230200- ...Gateway Observations for Charleston International... CITY SKY/WX TMP DP RH WIND PRES REMARKS Chas Airport FAIR 66 59 78 S5 30.43R Seattle PTCLDY 37 16 42 N12 30.34R WCI 29 Charlotte FAIR 69 62 78 S8 30.39R Dallas DFW CLOUDY 39 36 89 CALM 30.21S Dallas Love CLOUDY 39 37 92 CALM 30.24R Philladelphia CLOUDY 40 36 86 E13 30.59F WCI 32 Wash National CLOUDY 45 42 89 NE16 30.57R Baltimore CLOUDY 43 41 93 E17G23 30.57R Miami FAIR 76 68 76 E12 30.32R Detroit CLOUDY 37 27 67 E8 30.53S WCI 31 Newark CLOUDY 40 36 86 E9 30.61F WCI 34 Laguardia CLOUDY 39 34 82 E13 30.62F WCI 31 J F K CLOUDY 38 36 92 NE13 30.63F WCI 30 Boston Logan CLOUDY 34 31 88 E3 30.66F Ft. Lauderdale FAIR 76 69 79 E13 30.31R Chicago O`Hare CLOUDY 39 30 70 E9 30.38F WCI 33 Chicago Midway CLOUDY 40 33 76 E12 30.39F WCI 33 Houston Bush LGT RAIN 69 67 93 NW5 30.16R FOG Houston Hobby CLOUDY 73 73 100 S8 30.15R Nashville FOG 59 58 96 CALM 30.32R VSB 1/4 Atlanta FAIR 71 63 75 S7 30.39R $$ GAZ044-118-TXZ119-213-NCZ071-DCZ001-MDZ014-506-PAZ021-071-NJZ106- NYZ176-178-MAZ106-OHZ011-021-055-MIZ076-KYZ091-ILZ014-INZ047- MNZ060-ONZ431-230200- ...Gateway Observations for Savannah International... CITY SKY/WX TMP DP RH WIND PRES REMARKS Savannah Arpt FAIR 68 62 81 E3 30.43R Atlanta FAIR 71 63 75 S7 30.39R Charlotte FAIR 69 62 78 S8 30.39R Dallas DFW CLOUDY 39 36 89 CALM 30.21S Houston Bush LGT RAIN 69 67 93 NW5 30.16R FOG Wash National CLOUDY 45 42 89 NE16 30.57R Wash Dulles CLOUDY 45 43 93 NE9 30.56R Baltimore CLOUDY 43 41 93 E17G23 30.57R Philadelphia CLOUDY 40 36 86 E13 30.59F WCI 32 Newark CLOUDY 40 36 86 E9 30.61F WCI 34 Laguardia CLOUDY 39 34 82 E13 30.62F WCI 31 J F K CLOUDY 38 36 92 NE13 30.63F WCI 30 Boston CLOUDY 34 31 88 E3 30.66F Pittsburg DRIZZLE 40 39 97 E8 30.45F FOG WCI 34 Akron CLOUDY 44 37 76 E9 30.45R Cleveland CLOUDY 36 34 92 NE13 30.51R WCI 27 Cincinnati DRIZZLE 44 44 100 E8 30.37S FOG Columbus CLOUDY 43 42 95 E6 30.44R Detroit CLOUDY 37 27 67 E8 30.53S WCI 31 Chicago O`Hare CLOUDY 39 30 70 E9 30.38F WCI 33 Minneapolis LGT SNOW 28 21 75 E14 30.31F WCI 17 Indianapolis CLOUDY 44 42 93 SE9 30.37R Toronto Canada PTCLDY 30 21 69 E6 30.63F WCI 24 $$

USA.gov is the U.S. government's official web portal to all federal, state and local government web resources and services.